Погода в Владивостоке

Погода в Владивостоке : погода сейчас, прогноз погоды и архив. Всё, что Вы хотите узнать о погоде в Владивостоке!

Хотите узнать прогноз погоды в Владивостоке? Тогда Вам сюда: Погода в Владивостоке

Поиск расширенной информации на нашем сайте:

Другие новости

Новости СМИ2

Главная страница сайта

Новости сайта

03.07.2017

Напоминаем, что на нашем специализированном сайте Метеоцентр.Азия вы можете получить высокодетализированные автоматические прогнозы погоды по пунктам России, СНГ и мира в авиационном формате (включающие направление и скорость ветра, видимость, явления погоды, количество и форму облачности, нижнюю и верхнюю границу облачности).

Рекомендуем: Подробное описание купить квартиру эконом класса в подмосковье тут.

Погода в Владивостоке - сегодня

Время (UTC), дата Ветер
(°,м/с) 
Видим.   Явления Облачность Т
(°С)
Тd
(°С)
f(%) Тe
(°С)
Pmin
(гПа)
dP
(гПа)
Po
(мм)
O2
(г/м3)
Тmin Tmax R s Состояние
почвы
03 13.04.18 190 (Ю) 20000 м    1/1 600 м 
[Sc]
+10.4 -3.2 38 +10  1025.2  -0.5  752  292           
06 13.04.18 170 (Ю) 20000 м    10/0 верхняя 
[Ci fib]
+11.5 -3.6 35 +10  1023.1  -2  750  290           
15 13.04.18 160 (Ю) 5{13}  20000 м    10/0 верхняя 
[Cs]
+4.5 -3.2 57 +2  1021.5  -1.2  749  297           
21 13.04.18 140 (ЮВ) 11-14{14}  20000 м    10/10 600 м 
[Sc]
+2.4 +0.5 87 -2  1016.4  -3  745  297  +2        влажная 
00 14.04.18 090 (В) 12-17{19}  0500 м  слаб. дождь{туман}  ?/?  
+1.4 +1.1 98 -4  1015.6  -0.8  744  298  +1.4         
09 14.04.18 150 (ЮВ) 9-12{14}  0200 м  слаб. ливневой снег{туман}  ?/?  
-0.3 -0.3 100 -5  1008  -2.6  738  298    +2.4  15     
18 14.04.18 190 (Ю) 0200 м  слаб. ливневой снег{туман}  ?/?  
-0.3 -0.3 100 -3  1004.6  -1.6  736  297           
03 15.04.18 340 (С) 20000 м  {дождь, туман}  10/10 600 м 
[Sc]
+2.8 +2.8 100 1005.6  0.7  737  293           
12 15.04.18 330 (СЗ) 20000 м  {дождь}  10/10 600 м 
[Sc]
+3.6 +3.1 97 +2  1011.7  3.1  741  294           
15 15.04.18 340 (С) 5{10}  20000 м    9/9 600 м 
[Sc]
+3.4 +2.9 97 +1  1013.3  1.5  743  295           
18 15.04.18 290 (З) 20000 м    ясно 
+3 +1.7 91 +2  1014.2  0.8  743  296           
00 16.04.18 200 (Ю) 20000 м    ясно 
+6.6 +1.1 68 +6  1016.6  1.6  745  293           
03 16.04.18 170 (Ю) 20000 м    3/3 600 м 
[Sc]
+10.2 +0.2 50 +9  1016.4  0.1  745  289           
06 16.04.18 180 (Ю) 7{11}  20000 м    3/3 600 м 
[Sc]
+11.4 -2.5 38 +10  1015.3  -1  745  288           
12 16.04.18 180 (Ю) 8-11{14}  20000 м    ясно 
+6.5 -5.6 42 +4  1017.9  1.9  746  294           
15 16.04.18 160 (Ю) 7-10{11}  20000 м    ясно 
+4.1 -1.8 65 +1  1018.8  0.7  747  297           
00 17.04.18 160 (Ю) 10-13{15}  20000 м    10/10 200 м 
[St]
+3.6 +3 96 1019.7  0.8  747  297           
09 17.04.18 170 (Ю) 10-15{17}  10 км  слаб. морось  10/10 200 м 
[St]
+4.6 +3.6 93 +1  1016.5  -1.1  745  295    +6.1  0.0     
00 18.04.18 150 (ЮВ) 8-10{12}  0200 м  слаб. морось{туман}  ?/?  
+3.6 +3.6 100 1014.7  -0.2  744  295           
06 18.04.18 160 (Ю) 6{12}  0200 м  туман{морось}  ?/?  
+3.8 +3.8 100 +1  1012  -1.6  742  294           
12 18.04.18 160 (Ю) 0200 м  туман  ?/?  
+3.9 +3.9 100 +1  1011.1  0.2  741  294           
15 18.04.18 160 (Ю) 0200 м  туман  ?/?  
+3.3 +3.3 100 1010.6  -0.6  741  294           
18 18.04.18 130 (ЮВ) 6{11}  0200 м  туман  ?/?  
+1.7 +1.7 100 -1  1009.1  -1.6  739  296           
03 19.04.18 тихо ()   20000 м  {ливн. осадки}  10/0 средняя 
[Ac lent]
+8.1 +8.1 100 +8  1009.5  0.3  740  288           
06 19.04.18 300 (СЗ) 20000 м  в посл. час ливневой дождь  10/10 600 м кучево-дожд. 
[Cb calv]
+9 +4.7 74 +8  1009.6  -0.2  740  288           
Время (UTC), дата Ветер
(°,м/с) 
Видим.   Явления Облачность Т
(°С)
Тd
(°С)
f(%) Тe
(°С)
Pmin
(гПа)
dP
(гПа)
Po
(мм)
O2
(г/м3)
Тmin Tmax R s Состояние
почвы

Для получения пояснительной информации подведите курсор к названию столбца.

ПОГОДА в Владивостоке - архив

Всё, что Вы хотите узнать о погоде в Владивостоке - удобно и подробно!

Выберите нужную дату (начиная с 1 января 2015* года) и нажмите кнопку "Найти".
Будут отображены архивные сводки погоды по пункту Владивосток, начиная с указанной даты.


Отображать данные в формате CSV (для использования в таблицах Excel)


Внимание! Наш архив погоды предназначен исключительно для личного некоммерческого использования в познавательных целях. Если Вам необходимы официальные справки о состоянии погоды (для производственных, юридических, коммерческих и т.п. целей), обращайтесь в органы Росгидромета.

*Примечание: данная дата относится к архиву по метеостанциям СССР (Россия, СНГ, Балтия).
Архив по метеостанциям Зарубежной Европы и Азии (кроме Китая) хранится 10 дней, по другим регионам земного шара (Китай, Африка, Америка, Австралия, Океания) - 1 день.

Владивосток - район местоположения метеостанции


Название, широта, долгота, высота метеостанции:
Владивосток (город) 43.1°ш. 131.9°д. 183 м над ур. моря [Российская Федерация]

Дополнительная информация

В oтличие oт бoльшинства пoгoдных сайтoв мы публикуем пoдрoбную метеoинфoрмацию в детальнoм прoфессиoнальнoм фoрмате.

Характеристики температуры и влажнoсти вoздуха измеряются на высoте 2 м в тени вдали oт зданий и деревьев.
Скoрoсть ветра измеряется на высoте 10 м (на урoвне рoста челoвека скoрoсть ветра ниже в 1.5-2 раза). Если метеoстанция нахoдится в гoрoде или в лесу, тo скoрoсть ветра занижена на 2-4 м/с пo сравнению с oткрытым местoм. Скoрoсть ветра над акватoриями крупных рек и oзёр, а также на вершинах хoлмoв на 2-5 м/с выше, чем в oбычных услoвиях.
Атмoсфернoе давление в разных тoчках местнoсти мoжет значительнo oтличаться oт давления на метеoстанции, в зависимoсти oт услoвий рельефа (при пoдъёме на 10 м давление пoнижается примернo на 1 мм рт.ст.).